User: anonymous   Login
Location: Unspecified
(0.0000°N, 0.0000°E)
Time: 18:16:38
(UTC+00:00)
Language:

CLOUDSAT - Orbit

View from above orbital plane
View from above orbital plane
View from above satellite
View from above satellite

Ground track
Ground track

The orbit data is extracted from the following two-line orbital elements,

1 29107U 06016A   17021.82299449  .00000073  00000-0  26221-4 0  9997
2 29107  98.2246 327.9008 0001831 109.1531 250.9865 14.57099502571116
Epoch (UTC): 21 January 2017 19:45:06
Eccentricity: 0.0001831
inclination: 98.2246°
perigee height: 701 km
apogee height: 704 km
right ascension of ascending node: 327.9008°
argument of perigee: 109.1531°
revolutions per day: 14.57099502
mean anomaly at epoch: 250.9865°
orbit number at epoch: 57111

The dashed part of the orbit path shows where the satellite is in the earth's shadow,  

DLR